Погода в Новом Мире

Россия / Хабаровский край     50°27′22″N   136°57′50″E
темп.,
°C
ветер,
м/с
пор.,
м/с
влажн.,
%
обл.,
%
осадки,
мм/ч
давл.,
гПа
погр.,
м
8 августа, пн
пн801:00+19с2396100 1.1 100052
04:00+18ссв2299100 4.9 99971
07:00+18в2799100 5.0 997263
10:00+20ююв51095100 10.1 996665
13:00+21ю589284 1.5 995724
16:00+23ю578749 4.1 994723
19:00+22зюз1389100 2.7 994407
22:00+16с119962 7.5 99558
9 августа, вт
вт901:00+15з119823 0.7 99511
04:00+14ю22977 0.7 99534
07:00+14ююв23955 0.0 996154
10:00+18ю35803 0.0 996506
13:00+23ююз79533 0.0 9941561
16:00+23ююз710633 0.1 9931488
19:00+20ююз6117388 0.2 993751
22:00+15ю349249 1.7 99499
10 августа, ср
ср1001:00+13ю3119140 0.1 994313
04:00+12ююв369882 0.1 995197
07:00+14ю41095100 0.0 995522
10:00+16ююз5882100 0.0 995574
13:00+19ююз4769100 0.0 994672
16:00+19ююз3680100 1.6 993457
19:00+17юз46865 3.1 994207
22:00+14ю019488 4.1 99618
11 августа, чт
чт1101:00+13ююв119687 0.4 99631
04:00+11юв119842 0.4 99710
07:00+12ю239690 0.0 997258
10:00+15ююз238797 0.0 997519
13:00+20ююз22655 0.3 9971041
16:00+19ююз127430 4.3 998667
19:00+18з0187100 4.1 99944
22:00+14всв01935 5.8 100012
12 августа, пт
пт1201:00+12ссв119664 0.1 100012
04:00+11с229725 0.1 100218
07:00+12с119495 0.0 100385
10:00+16ссв1185100 0.0 1003496
13:00+18вюв1175100 0.0 1003718
16:00+20ю1170100 0.1 1002822
19:00+18ю2386100 0.0 1003117
22:00+15ююв1190100 0.3 100411